Location: Limerick
(52.6800°N, 8.6400°W)
Time: 01:15:39
(UTC+01:00)

ISS - All Passes

Search period start: 02 August 2015 00:00
Search period end: 12 August 2015 00:00
Orbit: 401 x 403 km, 51.6° (Epoch: 01 August)

Date Brightness Start Highest point End Pass type
(mag) Time Alt. Az. Time Alt. Az. Time Alt. Az.
02 Aug - 00:09:05 10° WSW 00:12:18 61° SSE 00:15:32 10° E visible
02 Aug - 01:45:23 10° W 01:48:39 71° S 01:51:54 10° ESE visible
02 Aug - 03:21:53 10° W 03:24:49 31° SSW 03:27:45 10° SE night (unlit)
02 Aug - 21:41:33 10° S 21:43:27 15° SE 21:45:24 10° ESE daylight
02 Aug - 23:16:12 10° SW 23:19:21 47° SSE 23:22:31 10° E visible
03 Aug - 00:52:23 10° W 00:55:39 76° S 00:58:56 10° E visible
03 Aug - 02:28:48 10° W 02:31:56 43° SSW 02:35:03 10° SE visible
03 Aug - 04:06:11 10° WSW 04:07:48 13° SW 04:09:19 10° S night (unlit)
03 Aug - 22:23:26 10° SW 22:26:27 35° SSE 22:29:28 10° E visible
03 Aug - 23:59:24 10° W 00:02:39 73° S 00:05:55 10° E visible
04 Aug - 01:35:46 10° W 01:38:59 56° SSW 01:42:12 10° ESE visible
04 Aug - 03:12:33 10° W 03:15:01 19° SSW 03:17:25 10° SSE night (unlit)
04 Aug - 21:30:51 10° SSW 21:33:34 24° SSE 21:36:18 10° E daylight
04 Aug - 23:06:25 10° WSW 23:09:39 64° S 23:12:54 10° E visible
05 Aug - 00:42:45 10° W 00:46:00 68° S 00:49:15 10° ESE visible
05 Aug - 02:19:17 10° W 02:22:09 28° SSW 02:25:00 10° SSE visible
05 Aug - 20:38:35 10° S 20:40:44 17° SE 20:42:55 10° ESE daylight
05 Aug - 22:13:30 10° WSW 22:16:41 51° SSE 22:19:52 10° E visible
05 Aug - 23:49:43 10° W 23:52:59 75° S 23:56:15 10° E visible
06 Aug - 01:26:09 10° W 01:29:14 39° SSW 01:32:19 10° SE visible
06 Aug - 03:03:54 10° WSW 03:05:03 11° SW 03:06:07 10° SSW night (unlit)
06 Aug - 19:47:13 10° SSE 19:47:57 11° SE 19:48:44 10° SE daylight
06 Aug - 21:20:40 10° SW 21:23:43 38° SSE 21:26:47 10° E daylight
06 Aug - 22:56:42 10° W 22:59:58 74° S 23:03:14 10° E visible
07 Aug - 00:33:04 10° W 00:36:17 53° SSW 00:39:28 10° ESE visible
07 Aug - 02:09:58 10° W 02:12:15 18° SW 02:14:29 10° S visible
07 Aug - 20:28:00 10° SSW 20:30:48 27° SSE 20:33:38 10° E daylight
07 Aug - 22:03:41 10° WSW 22:06:56 67° S 22:10:11 10° E visible
07 Aug - 23:40:01 10° W 23:43:16 66° S 23:46:31 10° ESE visible
08 Aug - 01:16:36 10° W 01:19:23 26° SSW 01:22:09 10° SSE visible
08 Aug - 19:35:36 10° SSW 19:37:56 18° SE 19:40:18 10° E daylight
08 Aug - 21:10:43 10° WSW 21:13:54 55° SSE 21:17:07 10° E daylight
08 Aug - 22:46:58 10° W 22:50:15 74° S 22:53:30 10° E visible
09 Aug - 00:23:25 10° W 00:26:28 36° SSW 00:29:30 10° SE visible
09 Aug - 18:43:47 10° SSE 18:45:05 12° SE 18:46:28 10° ESE daylight
09 Aug - 20:17:49 10° SW 20:20:55 41° SSE 20:24:01 10° E daylight
09 Aug - 21:53:55 10° W 21:57:10 75° S 22:00:27 10° E visible
09 Aug - 23:30:18 10° W 23:33:29 49° SSW 23:36:39 10° ESE visible
10 Aug - 01:07:19 10° WSW 01:09:24 16° SW 01:11:26 10° S visible
10 Aug - 19:25:04 10° SW 19:27:57 29° SSE 19:30:52 10° E daylight
10 Aug - 21:00:52 10° WSW 21:04:07 70° S 21:07:22 10° E daylight
10 Aug - 22:37:13 10° W 22:40:27 63° SSW 22:43:41 10° ESE visible
11 Aug - 00:13:51 10° W 00:16:32 23° SSW 00:19:11 10° SSE visible
11 Aug - 18:32:33 10° SSW 18:35:02 20° SSE 18:37:33 10° E daylight
11 Aug - 20:07:51 10° WSW 20:11:04 58° SSE 20:14:17 10° E daylight
11 Aug - 21:44:08 10° W 21:47:24 72° S 21:50:39 10° ESE visible
11 Aug - 23:20:36 10° W 23:23:35 33° SSW 23:26:34 10° SE visible
